Weather History for Cherry Point, NC

Change the Weather History Date:

Thursday, April 25, 2013

  Actual Average Record
Temperature  
Mean Temperature 60 °F -  
Max Temperature 70 °F 71 °F 84 °F (2006)
Min Temperature 52 °F 50 °F 39 °F (2005)
Degree Days  
Heating Degree Days 4    
Growing Degree Days 10 (Base 50)    
Moisture  
Dew Point 53 °F    
Average Humidity 73    
Maximum Humidity 87    
Minimum Humidity 60    
Precipitation  
Precipitation 0.01 in - - ()
Sea Level Pressure  
Sea Level Pressure 30.18 in    
Wind  
Wind Speed 10 mph ()    
Max Wind Speed 22 mph    
Max Gust Speed 26 mph    
Visibility 9.8 miles    
Events      
Averages and records for this station are not official NWS values.
T = Trace of Precipitation, MM = Missing Value Source: Averaged Metar Reports

Daily Weather History Graph

Daily Weather History Graph

Search for Another Location

Airport:

Trip Planner

Search our weather history database for the weather conditions in past years. The results will help you decide how hot, cold, wet, or windy it might be!

Date:

Astronomy

Apr. 25, 2013 Rise Set
Actual Time 6:23 AM EDT 7:48 PM EDT
Civil Twilight 5:56 AM EDT 8:14 PM EDT
Nautical Twilight 5:24 AM EDT 8:46 PM EDT
Astronomical Twilight 4:51 AM EDT 9:20 PM EDT
Moon 7:57 PM EDT (4/25) 6:04 AM EDT (4/25)
Length of Visible Light 14h 18m
Length of Day
13h 24m
Full, 100% of the Moon is Illuminated
Apr 25
Full
Apr 25
Full
May 2
Last Quarter
May 9
New
May 18
First Quarter

Hourly Weather History & Observations

Time (EDT) Temp. Dew Point Humidity Pressure Visibility Wind Dir Wind Speed Gust Speed Precip Events Conditions
12:54 AM 66.9 °F 59.0 °F 76% 30.09 in 10.0 mi SW 11.5 mph 18.4 mph N/A   Clear
1:54 AM 66.0 °F 60.1 °F 81% 30.07 in 10.0 mi SW 10.4 mph 17.3 mph N/A   Clear
2:54 AM 66.0 °F 60.1 °F 81% 30.06 in 10.0 mi SW 11.5 mph - N/A   Clear
3:54 AM 64.9 °F 60.1 °F 84% 30.08 in 10.0 mi SW 10.4 mph - N/A   Clear
4:54 AM 64.9 °F 60.1 °F 84% 30.09 in 10.0 mi SW 10.4 mph - N/A   Mostly Cloudy
5:54 AM 64.9 °F 60.1 °F 84% 30.11 in 10.0 mi SW 6.9 mph - N/A   Overcast
6:54 AM 64.0 °F 60.1 °F 87% 30.13 in 9.0 mi WSW 5.8 mph - N/A   Overcast
7:54 AM 64.0 °F 59.0 °F 84% 30.15 in 7.0 mi West 5.8 mph - 0.01 in   Overcast
8:54 AM 64.9 °F 59.0 °F 81% 30.17 in 10.0 mi NW 9.2 mph - N/A   Overcast
9:54 AM 68.0 °F 57.0 °F 68% 30.18 in 10.0 mi North 13.8 mph - N/A   Mostly Cloudy
10:54 AM 68.0 °F 55.9 °F 65% 30.19 in 10.0 mi NNE 11.5 mph - N/A   Mostly Cloudy
11:54 AM 66.0 °F 55.9 °F 70% 30.19 in 10.0 mi ENE 21.9 mph - N/A   Mostly Cloudy
12:04 PM 62.6 °F 51.8 °F 68% 30.21 in 10.0 mi ENE 18.4 mph 26.5 mph N/A   Overcast
12:54 PM 64.0 °F 50.0 °F 60% 30.22 in 10.0 mi NE 17.3 mph 24.2 mph N/A   Overcast
1:54 PM 64.0 °F 51.1 °F 63% 30.20 in 10.0 mi East 15.0 mph 23.0 mph 0.00 in   Overcast
2:54 PM 63.0 °F 51.1 °F 65% 30.22 in 10.0 mi ENE 16.1 mph - N/A   Overcast
3:54 PM 62.1 °F 50.0 °F 65% 30.21 in 10.0 mi East 13.8 mph - N/A   Overcast
4:54 PM 62.1 °F 50.0 °F 65% 30.22 in 10.0 mi ENE 11.5 mph 19.6 mph N/A   Overcast
5:54 PM 60.1 °F 48.9 °F 67% 30.23 in 10.0 mi East 12.7 mph - N/A   Mostly Cloudy
6:54 PM 57.9 °F 46.9 °F 67% 30.21 in 10.0 mi East 11.5 mph - N/A   Overcast
7:54 PM 55.9 °F 46.9 °F 72% 30.25 in 10.0 mi East 10.4 mph - N/A   Mostly Cloudy
8:54 PM 55.0 °F 46.0 °F 72% 30.26 in 10.0 mi East 5.8 mph - N/A   Mostly Cloudy
9:54 PM 53.1 °F 46.0 °F 77% 30.27 in 10.0 mi East 4.6 mph - N/A   Clear
10:54 PM 54.0 °F 45.0 °F 72% 30.28 in 10.0 mi ENE 4.6 mph - N/A   Clear
11:54 PM 52.0 °F 45.0 °F 77% 30.28 in 10.0 mi NE 5.8 mph - N/A   Clear